Weather History for KCQT - February, 2012

Change the Weather History Date:

Monday, February 13, 2012

  Actual Average Record
Temperature  
Mean Temperature 54 °F 59 °F  
Max Temperature 59 °F 69 °F 90 °F (1985)
Min Temperature 49 °F 49 °F 35 °F (1903)
Degree Days  
Heating Degree Days 11 7  
Month to date heating degree days 73 91  
Since 1 July heating degree days 747 682  
Cooling Degree Days 0 0  
Month to date cooling degree days 1 0  
Year to date cooling degree days 12 9  
Growing Degree Days 4 (Base 50)    
Moisture  
Dew Point 45 °F    
Average Humidity 65    
Maximum Humidity 83    
Minimum Humidity 47    
Precipitation  
Precipitation 0.01 in 0.14 in 2.71 in (1954)
Month to date precipitation 0.03 1.67  
Year to date precipitation 1.33 4.79  
Since 1 July precipitation 5.09  
Sea Level Pressure  
Sea Level Pressure 29.97 in    
Wind  
Wind Speed 2 mph (West)    
Max Wind Speed 14 mph    
Max Gust Speed 23 mph    
Visibility 9 miles    
Events Rain    
T = Trace of Precipitation, MM = Missing Value Source: NWS Daily Summary

Daily Weather History Graph

Daily Weather History Graph

Search for Another Location

Airport or City:

Trip Planner

Search our weather history database for the weather conditions in past years. The results will help you decide how hot, cold, wet, or windy it might be!

Date:

Astronomy

Feb. 13, 2012 Rise Set
Actual Time 6:40 AM PST 5:34 PM PST
Civil Twilight 6:14 AM PST 6:00 PM PST
Nautical Twilight 5:45 AM PST 6:30 PM PST
Astronomical Twilight 5:16 AM PST 6:59 PM PST
Moon No Moon Rise 10:04 AM PST (2/13)
Length of Visible Light 11h 45m
Length of Day
10h 54m
Waning Gibbous, 60% of the Moon is Illuminated
Feb 13
Waning Gibbous
Feb 14
Last Quarter
Feb 21
New
Feb 29
First Quarter
Mar 8
Full

Hourly Weather History & Observations

Time (PST) Temp. Dew Point Humidity Pressure Visibility Wind Dir Wind Speed Gust Speed Precip Events Conditions
12:22 AM 53.6 °F 48.2 °F 82% 30.03 in 10.0 mi Calm Calm - N/A   Mostly Cloudy
12:30 AM 53.6 °F 48.2 °F 82% 30.03 in 10.0 mi Calm Calm - N/A   Scattered Clouds
12:36 AM 53.6 °F 48.2 °F 82% 30.03 in 10.0 mi Calm Calm - N/A   Mostly Cloudy
12:47 AM 53.1 °F 48.0 °F 83% 30.02 in 10.0 mi Calm Calm - N/A   Scattered Clouds
1:47 AM 52.0 °F 46.9 °F 83% 30.03 in 10.0 mi Calm Calm - N/A   Mostly Cloudy
2:47 AM 53.1 °F 48.9 °F 86% 30.01 in 10.0 mi Calm Calm - N/A   Overcast
3:47 AM 54.0 °F 48.0 °F 80% 30.01 in 10.0 mi Calm Calm - N/A   Overcast
4:47 AM 54.0 °F 48.0 °F 80% 29.99 in 10.0 mi Calm Calm - N/A   Mostly Cloudy
5:47 AM 54.0 °F 48.0 °F 80% 30.00 in 10.0 mi Calm Calm - N/A   Overcast
5:55 AM 53.6 °F 48.2 °F 82% 30.01 in 10.0 mi Calm Calm - N/A   Overcast
6:21 AM 53.6 °F 48.2 °F 82% 30.00 in 10.0 mi Calm Calm - N/A   Overcast
6:47 AM 53.1 °F 48.0 °F 83% 30.01 in 10.0 mi Calm Calm - N/A   Overcast
6:56 AM 53.6 °F 48.2 °F 82% 30.01 in 10.0 mi Calm Calm - N/A   Overcast
7:47 AM 54.0 °F 48.0 °F 80% 30.02 in 10.0 mi Calm Calm - N/A   Overcast
8:39 AM 55.4 °F 48.2 °F 77% 30.02 in 9.0 mi Calm Calm - 0.00 in Rain Light Rain
8:47 AM 55.0 °F 48.0 °F 77% 30.02 in 10.0 mi Calm Calm - 0.00 in   Overcast
9:47 AM 55.9 °F 46.9 °F 72% 30.01 in 8.0 mi Variable 3.5 mph - N/A   Overcast
9:54 AM 55.4 °F 48.2 °F 77% 30.01 in 5.0 mi Calm Calm - 0.00 in Rain Light Rain
10:47 AM 54.0 °F 51.1 °F 90% 30.00 in 3.0 mi Calm Calm - 0.01 in Rain Light Rain
11:04 AM 53.6 °F 50.0 °F 88% 30.00 in 9.0 mi Variable 3.5 mph - 0.00 in Rain Light Rain
11:17 AM 55.4 °F 51.8 °F 88% 29.99 in 10.0 mi Calm Calm - 0.00 in   Overcast
11:47 AM 57.0 °F 50.0 °F 77% 29.97 in 10.0 mi Calm Calm - 0.00 in   Overcast
12:29 PM 55.4 °F 48.2 °F 77% 29.95 in 6.0 mi Variable 4.6 mph - 0.00 in Rain Light Rain
12:47 PM 57.0 °F 46.0 °F 67% 29.94 in 10.0 mi West 5.8 mph - 0.00 in   Scattered Clouds
1:47 PM 57.9 °F 44.1 °F 60% 29.92 in 10.0 mi Variable 6.9 mph - N/A   Scattered Clouds
2:47 PM 57.9 °F 37.0 °F 46% 29.92 in 10.0 mi Variable 5.8 mph - N/A   Scattered Clouds
3:47 PM 57.0 °F 37.9 °F 49% 29.90 in 10.0 mi Variable 6.9 mph - N/A   Partly Cloudy
4:47 PM 55.9 °F 39.9 °F 55% 29.89 in 10.0 mi Variable 6.9 mph 23.0 mph N/A   Mostly Cloudy
5:47 PM 54.0 °F 39.0 °F 57% 29.89 in 10.0 mi West 3.5 mph - N/A   Clear
6:47 PM 53.1 °F 37.9 °F 57% 29.89 in 10.0 mi West 4.6 mph - N/A   Clear
7:47 PM 51.1 °F 37.0 °F 59% 29.90 in 10.0 mi Calm Calm - N/A   Clear
8:47 PM 50.0 °F 36.0 °F 59% 29.91 in 10.0 mi West 3.5 mph - N/A   Clear
9:47 PM 50.0 °F 37.0 °F 61% 29.93 in 10.0 mi Variable 3.5 mph - N/A   Clear
10:47 PM 50.0 °F 37.0 °F 61% 29.93 in 10.0 mi Calm Calm - N/A   Clear
11:47 PM 50.0 °F 39.0 °F 66% 29.93 in 10.0 mi NNW 3.5 mph - N/A   Mostly Cloudy